COSMOS 1275 DEB, 13464

Orbit data source: Space-Track

COSMOS 1275 DEB, 13464 is space debris in LEO originally from a launch on Thu, 04 Jun 1981 UTC launched from the Plesetsk Missile And Space Complex (PKMTR). Debris objects in space refer to the collection of defunct objects orbiting the Earth. Examples of debris include non-operational satellites, rocket bodies, and fragments generated from explosions, collisions, or faulty payload assembly.

Loading next visibility...
Identifier
13464, 1981-053FL
Orbit
LEO
Country
Flag of CISCIS
Related business
Manufacturer
Unknown
Mission
Spacecraft
Bus & Motor
Unknown
Mass
Unknown
Launch date (UTC)
1981-06-04 (45 years ago)
Launch vehicle
Unknown
Launch site
Plesetsk Missile And Space Complex (PKMTR)
Object type
Payload
Rocket body
Debris
Shape & HBR
Unknown shape, 0.1 m
Radar Cross Section
Small (<0.1 m²)

Expand to show TLE details & history
Last TLE update: 18 hours ago

TLE from 18 hours ago
0 COSMOS 1275 DEB
1 13464U 81053FL  25350.11262537  .00003993  00000-0  12456-2 0  9991
2 13464  82.9078 200.1546 0026211 253.3523 234.4549 14.40481796230636
Epoch: 2025-12-16T02:42Z
TLE epoch observation values (Epoch: 2025-12-16T02:42:10.831Z)
Latitude
51.97081°
Longitude
-114.49645°
Altitude
776.251 km
Speed
7.465 km/s
True Right ascension
00h 44m 12s
True Declination
51° 48' 15"
Sunlit
Object was in full shadow at epoch
Visualization orbit readout
Latitude
Unknown
Longitude
Unknown
Altitude
Unknown
Speed
Unknown
Apparent Right ascension
Unknown
Apparent Declination
Unknown
Sunlit
N/A
Visualization observer readout
Local Sidereal Time
19:34:48
Azimuth
Unknown
Elevation
Unknown
Doppler factor
Unknown
Orbital elements
Apogee altitude
772.661 km
Perigee altitude
735.273 km
Semi-major axis
7,132.104 km
Eccentricity
0.00262
Inclination
82.9078°
RAAN
200.1546°
Arg. of periapsis
253.3523°
True anomaly
234.21098°
Mean anomaly
234.4549°
Eccentric anomaly
234.33289°
Mean motion
3.60343 °/min
Orbital period
99.9 mins
BSTAR
0.0012456
Loading maneuver chart data...
Computing Atmospheric mass density...
Loading historical data...
Loading historical data...
Loading historical data...
Loading historical data...
Loading historical data...
Loading historical data...
Loading historical data...

Documentation

Showing up to 5 results
|